Weather History for Charlotte, NC

Change the Weather History Date:

Saturday, July 13, 2013

  Actual Average Record
Temperature  
Mean Temperature 76 °F 79 °F  
Max Temperature 81 °F 89 °F 100 °F (1986)
Min Temperature 70 °F 68 °F 56 °F (1918)
Degree Days  
Heating Degree Days 0 0  
Month to date heating degree days 0 0  
Since 1 June heating degree days 0 3  
Since 1 July heating degree days 0 0  
Cooling Degree Days 11 14  
Month to date cooling degree days 169 175  
Year to date cooling degree days 685 649  
Since 1 June cooling degree days 516 486  
Growing Degree Days 26 (Base 50)    
Moisture  
Dew Point 69 °F    
Average Humidity 83    
Maximum Humidity 97    
Minimum Humidity 69    
Precipitation  
Precipitation 0.59 in 0.12 in 2.09 in (1885)
Month to date precipitation 5.34 1.41  
Year to date precipitation 31.40 22.11  
Snow  
Snow 0.00 in 0.00 in 0.00 in ()
Month to date snowfall 0.0 0.0  
Since 1 June snowfall 0.0 0.0  
Since 1 July snowfall 0.0 0.0  
Snow Depth 0.00 in    
Sea Level Pressure  
Sea Level Pressure 30.07 in    
Wind  
Wind Speed 8 mph (NE)    
Max Wind Speed 18 mph    
Max Gust Speed 26 mph    
Visibility 9 miles    
Events Rain    
T = Trace of Precipitation, MM = Missing Value Source: NWS Daily Summary

Daily Weather History Graph

Daily Weather History Graph

Search for Another Location

Airport:

Trip Planner

Search our weather history database for the weather conditions in past years. The results will help you decide how hot, cold, wet, or windy it might be!

Date:

Astronomy

Jul. 13, 2013 Rise Set
Actual Time 6:19 AM EDT 8:39 PM EDT
Civil Twilight 5:50 AM EDT 9:08 PM EDT
Nautical Twilight 5:14 AM EDT 9:44 PM EDT
Astronomical Twilight 4:35 AM EDT 10:23 PM EDT
Moon 11:20 AM EDT (7/13) 11:34 PM EDT (7/13)
Length of Visible Light 15h 18m
Length of Day
14h 19m
Waxing Crescent, 25% of the Moon is Illuminated
Jul 13
Waxing Crescent
Jul 15
First Quarter
Jul 22
Full
Jul 29
Last Quarter
Aug 6
New

Hourly Weather History & Observations

Time (EDT) Temp. Heat Index Dew Point Humidity Pressure Visibility Wind Dir Wind Speed Gust Speed Precip Events Conditions
12:52 AM 72.0 °F - 66.9 °F 84% 30.01 in 10.0 mi NE 6.9 mph - N/A   Mostly Cloudy
1:23 AM 71.6 °F - 66.2 °F 83% 30.04 in 10.0 mi NE 5.8 mph - N/A   Mostly Cloudy
1:52 AM 72.0 °F - 66.9 °F 84% 30.02 in 10.0 mi NE 6.9 mph - N/A   Overcast
2:37 AM 71.6 °F - 66.2 °F 83% 30.05 in 10.0 mi ENE 5.8 mph - N/A   Overcast
2:52 AM 71.1 °F - 66.9 °F 87% 30.03 in 10.0 mi ENE 6.9 mph - N/A   Overcast
3:52 AM 71.1 °F - 66.9 °F 87% 30.03 in 10.0 mi ENE 4.6 mph - N/A   Overcast
4:52 AM 70.0 °F - 68.0 °F 93% 30.02 in 10.0 mi NNE 6.9 mph - 0.01 in   Overcast
5:17 AM 69.8 °F - 68.0 °F 94% 30.05 in 10.0 mi NE 8.1 mph - N/A   Overcast
5:52 AM 70.0 °F - 68.0 °F 93% 30.03 in 8.0 mi NE 10.4 mph - N/A   Overcast
6:52 AM 70.0 °F - 68.0 °F 93% 30.04 in 7.0 mi NE 8.1 mph - N/A   Overcast
7:52 AM 70.0 °F - 68.0 °F 93% 30.07 in 6.0 mi ENE 9.2 mph - N/A   Overcast
8:11 AM 71.6 °F - 68.0 °F 88% 30.10 in 8.0 mi ENE 10.4 mph - N/A   Overcast
8:52 AM 72.0 °F - 68.0 °F 87% 30.08 in 10.0 mi ENE 8.1 mph 18.4 mph N/A   Overcast
9:52 AM 73.9 °F - 68.0 °F 82% 30.09 in 10.0 mi ENE 9.2 mph 19.6 mph N/A   Overcast
10:52 AM 75.0 °F - 68.0 °F 79% 30.10 in 10.0 mi NE 9.2 mph 19.6 mph N/A   Overcast
11:52 AM 75.0 °F - 68.0 °F 79% 30.11 in 10.0 mi ENE 8.1 mph 21.9 mph N/A   Overcast
12:45 PM 75.2 °F - 68.0 °F 78% 30.13 in 10.0 mi East 8.1 mph 18.4 mph N/A   Overcast
12:52 PM 75.9 °F - 68.0 °F 76% 30.11 in 10.0 mi ENE 8.1 mph - 0.00 in   Overcast
1:52 PM 78.1 °F - 69.1 °F 74% 30.10 in 10.0 mi East 8.1 mph - N/A   Overcast
2:52 PM 79.0 °F - 69.1 °F 72% 30.09 in 10.0 mi ENE 10.4 mph - N/A   Overcast
3:52 PM 78.1 °F - 69.1 °F 74% 30.09 in 10.0 mi ENE 9.2 mph - N/A   Mostly Cloudy
4:52 PM 80.1 °F 83.2 °F 70.0 °F 71% 30.08 in 10.0 mi NNE 5.8 mph - N/A   Overcast
5:52 PM 80.1 °F 83.6 °F 71.1 °F 74% 30.07 in 10.0 mi North 8.1 mph - N/A   Mostly Cloudy
6:52 PM 80.1 °F 83.6 °F 71.1 °F 74% 30.07 in 1.5 mi NNE 10.4 mph - 0.00 in Rain Heavy Rain
6:54 PM 78.8 °F - 71.6 °F 78% 30.10 in 1.5 mi NE 10.4 mph - 0.00 in Rain Heavy Rain
7:11 PM 73.4 °F - 71.6 °F 94% 30.09 in 7.0 mi ENE 5.8 mph - 0.54 in Rain Light Rain
7:52 PM 73.9 °F - 72.0 °F 93% 30.08 in 10.0 mi North 10.4 mph - 0.56 in   Mostly Cloudy
8:22 PM 73.4 °F - 71.6 °F 94% 30.11 in 10.0 mi NNE 6.9 mph - N/A   Mostly Cloudy
8:52 PM 73.9 °F - 72.0 °F 93% 30.09 in 10.0 mi NNE 5.8 mph - N/A   Mostly Cloudy
9:28 PM 73.4 °F - 73.4 °F 100% 30.12 in 10.0 mi North 3.5 mph - N/A   Overcast
9:52 PM 73.9 °F - 73.0 °F 97% 30.09 in 7.0 mi ENE 8.1 mph - 0.00 in Rain Light Rain
10:52 PM 75.0 °F - 73.0 °F 94% 30.09 in 10.0 mi NE 8.1 mph - 0.01 in   Overcast
10:56 PM 75.2 °F - 73.4 °F 94% 30.12 in 10.0 mi NE 8.1 mph - N/A   Overcast
11:52 PM 73.9 °F - 73.0 °F 97% 30.09 in 4.0 mi NE 9.2 mph - 0.00 in Rain Light Rain